• In Deutschland
  • Länderverzeichnis
  • Für 7 Tage
  • Wassertemperatur
  • Satellitenkarten
  • Wetterkarte
  • Widgets
  • user-avatar
    Anmelden

    Stündliche Wetter Xiancun

    Heute, 21 September, Freitag

    Zeit Temperatur Niederschläge Wind Luftdruck Luftfeuchtigkeit
    00:00 +24°C° 0.2 mm 0 m/S 738 mmHg 94%
    01:00 +24°C° 0.2 mm 0 m/S 737 mmHg 93%
    02:00 +24°C° 0 mm 0 m/S 737 mmHg 93%
    03:00 +24°C° 0.1 mm 0 m/S 737 mmHg 92%
    04:00 +24°C° 0.1 mm 0 m/S 737 mmHg 92%
    05:00 +24°C° 0.1 mm 0 m/S 737 mmHg 91%
    06:00 +25°C° 0 mm 0 m/S 737 mmHg 87%
    07:00 +26°C° 0 mm 0 m/S 738 mmHg 83%
    08:00 +28°C° 0 mm 0 m/S 738 mmHg 80%
    09:00 +30°C° 0.1 mm 0 m/S 738 mmHg 72%
    10:00 +34°C° 0.1 mm 1 m/S 738 mmHg 64%
    11:00 +35°C° 0.1 mm 1 m/S 738 mmHg 56%
    12:00 +35°C° 0.8 mm 1 m/S 737 mmHg 58%
    13:00 +35°C° 0.8 mm 1 m/S 737 mmHg 59%
    14:00 +35°C° 0.8 mm 1 m/S 737 mmHg 61%
    15:00 +34°C° 2 mm 1 m/S 737 mmHg 68%
    16:00 +32°C° 2 mm 1 m/S 737 mmHg 75%
    17:00 +31°C° 2 mm 1 m/S 737 mmHg 82%
    18:00 +30°C° 0.9 mm 1 m/S 737 mmHg 86%
    19:00 +28°C° 0.9 mm 1 m/S 738 mmHg 89%
    20:00 +27°C° 0.9 mm 1 m/S 738 mmHg 92%
    21:00 +27°C° 0.4 mm 1 m/S 738 mmHg 93%
    22:00 +27°C° 0.4 mm 1 m/S 739 mmHg 95%
    23:00 +26°C° 0.4 mm 1 m/S 739 mmHg 96%

    Morgen, 22 September, Samstag

    Zeit Temperatur Niederschläge Wind Luftdruck Luftfeuchtigkeit
    00:00 +26°C° 0 mm 1 m/S 739 mmHg 96%
    01:00 +26°C° 0 mm 1 m/S 739 mmHg 97%
    02:00 +26°C° 0 mm 1 m/S 739 mmHg 97%
    03:00 +25°C° 0.1 mm 1 m/S 739 mmHg 97%
    04:00 +25°C° 0.1 mm 1 m/S 739 mmHg 97%
    05:00 +25°C° 0.1 mm 1 m/S 739 mmHg 97%
    06:00 +26°C° 0 mm 1 m/S 739 mmHg 94%
    07:00 +27°C° 0 mm 1 m/S 740 mmHg 91%
    08:00 +28°C° 0 mm 1 m/S 740 mmHg 88%
    09:00 +29°C° 0 mm 1 m/S 740 mmHg 77%
    10:00 +31°C° 0 mm 1 m/S 740 mmHg 67%
    11:00 +33°C° 0 mm 1 m/S 740 mmHg 56%
    12:00 +34°C° 0 mm 1 m/S 740 mmHg 55%
    13:00 +34°C° 0 mm 1 m/S 739 mmHg 53%
    14:00 +34°C° 0 mm 1 m/S 739 mmHg 51%
    15:00 +33°C° 0.1 mm 1 m/S 739 mmHg 59%
    16:00 +32°C° 0.1 mm 1 m/S 739 mmHg 68%
    17:00 +30°C° 0.1 mm 1 m/S 738 mmHg 76%
    18:00 +29°C° 0.1 mm 1 m/S 739 mmHg 82%
    19:00 +28°C° 0.1 mm 1 m/S 739 mmHg 88%
    20:00 +26°C° 0.1 mm 1 m/S 740 mmHg 94%
    21:00 +26°C° 0.2 mm 1 m/S 740 mmHg 95%
    22:00 +26°C° 0.2 mm 1 m/S 740 mmHg 96%
    23:00 +24°C° 0.2 mm 0 m/S 740 mmHg 97%

    übermorgen, 23 September, Sonntag

    Zeit Temperatur Niederschläge Wind Luftdruck Luftfeuchtigkeit
    00:00 +24°C° 0.1 mm 0 m/S 740 mmHg 97%
    01:00 +24°C° 0.1 mm 0 m/S 740 mmHg 97%
    02:00 +23°C° 0.1 mm 0 m/S 740 mmHg 97%
    03:00 +23°C° 0.2 mm 0 m/S 739 mmHg 97%
    04:00 +23°C° 0.2 mm 0 m/S 739 mmHg 97%
    05:00 +23°C° 0.2 mm 0 m/S 739 mmHg 97%
    06:00 +24°C° 0.1 mm 0 m/S 739 mmHg 93%
    07:00 +25°C° 0.1 mm 0 m/S 740 mmHg 89%
    08:00 +26°C° 0.1 mm 0 m/S 740 mmHg 84%
    09:00 +27°C° 0.6 mm 0 m/S 740 mmHg 80%
    10:00 +29°C° 0.6 mm 0 m/S 740 mmHg 75%
    11:00 +32°C° 0.6 mm 1 m/S 740 mmHg 70%
    12:00 +32°C° 0.8 mm 1 m/S 739 mmHg 72%
    13:00 +31°C° 0.8 mm 1 m/S 738 mmHg 73%
    14:00 +31°C° 0.8 mm 1 m/S 738 mmHg 75%
    15:00 +30°C° 1.6 mm 1 m/S 738 mmHg 81%
    16:00 +29°C° 1.6 mm 1 m/S 738 mmHg 87%
    17:00 +28°C° 1.6 mm 1 m/S 738 mmHg 93%
    18:00 +27°C° 2 mm 1 m/S 739 mmHg 94%
    19:00 +26°C° 2 mm 1 m/S 739 mmHg 95%
    20:00 +25°C° 2 mm 1 m/S 740 mmHg 96%
    21:00 +25°C° 1.7 mm 1 m/S 740 mmHg 96%
    22:00 +25°C° 1.7 mm 1 m/S 740 mmHg 97%
    23:00 +24°C° 1.7 mm 1 m/S 740 mmHg 97%

    24 September, Montag

    Zeit Temperatur Niederschläge Wind Luftdruck Luftfeuchtigkeit
    00:00 +24°C° 0.6 mm 1 m/S 740 mmHg 97%
    01:00 +24°C° 0.6 mm 1 m/S 739 mmHg 97%
    02:00 +23°C° 0.6 mm 1 m/S 739 mmHg 97%
    03:00 +23°C° 0 mm 1 m/S 739 mmHg 96%
    04:00 +23°C° 0 mm 1 m/S 739 mmHg 96%
    05:00 +22°C° 0 mm 1 m/S 739 mmHg 96%
    06:00 +23°C° 0 mm 1 m/S 739 mmHg 94%
    07:00 +24°C° 0 mm 1 m/S 740 mmHg 91%
    08:00 +25°C° 0 mm 1 m/S 740 mmHg 88%
    09:00 +26°C° 0 mm 2 m/S 740 mmHg 78%
    10:00 +28°C° 0 mm 2 m/S 740 mmHg 69%
    11:00 +30°C° 0 mm 2 m/S 740 mmHg 59%
    12:00 +30°C° 0.1 mm 2 m/S 739 mmHg 61%
    13:00 +30°C° 0.1 mm 3 m/S 738 mmHg 62%
    14:00 +30°C° 0.1 mm 3 m/S 738 mmHg 64%
    15:00 +29°C° 0.2 mm 3 m/S 738 mmHg 68%
    16:00 +28°C° 0.2 mm 3 m/S 738 mmHg 73%
    17:00 +27°C° 0.2 mm 3 m/S 738 mmHg 77%
    18:00 +26°C° 0 mm 2 m/S 738 mmHg 81%
    19:00 +25°C° 0 mm 2 m/S 739 mmHg 85%
    20:00 +23°C° 0 mm 2 m/S 739 mmHg 89%
    21:00 +23°C° 0 mm 2 m/S 739 mmHg 90%
    22:00 +23°C° 0 mm 2 m/S 739 mmHg 91%
    23:00 +22°C° 0 mm 1 m/S 739 mmHg 92%

    25 September, Dienstag

    Zeit Temperatur Niederschläge Wind Luftdruck Luftfeuchtigkeit
    00:00 +22°C° 0 mm 1 m/S 739 mmHg 92%
    01:00 +22°C° 0 mm 1 m/S 738 mmHg 92%
    02:00 +21°C° 0 mm 1 m/S 738 mmHg 91%
    03:00 +21°C° 0 mm 1 m/S 738 mmHg 91%
    04:00 +21°C° 0 mm 1 m/S 738 mmHg 90%
    05:00 +21°C° 0 mm 1 m/S 738 mmHg 89%
    06:00 +21°C° 0 mm 2 m/S 738 mmHg 85%
    07:00 +23°C° 0 mm 2 m/S 739 mmHg 81%
    08:00 +24°C° 0 mm 2 m/S 739 mmHg 76%
    09:00 +25°C° 0 mm 2 m/S 739 mmHg 69%
    10:00 +27°C° 0 mm 2 m/S 739 mmHg 62%
    11:00 +28°C° 0 mm 2 m/S 739 mmHg 55%
    12:00 +29°C° 0 mm 3 m/S 738 mmHg 54%
    13:00 +29°C° 0 mm 3 m/S 738 mmHg 53%
    14:00 +30°C° 0 mm 3 m/S 737 mmHg 52%
    15:00 +29°C° 0 mm 3 m/S 737 mmHg 58%
    16:00 +27°C° 0 mm 3 m/S 737 mmHg 64%
    17:00 +26°C° 0 mm 2 m/S 737 mmHg 70%
    18:00 +25°C° 0 mm 2 m/S 737 mmHg 75%
    19:00 +23°C° 0 mm 2 m/S 738 mmHg 80%
    20:00 +21°C° 0 mm 2 m/S 738 mmHg 85%
    21:00 +20°C° 0 mm 2 m/S 738 mmHg 86%
    22:00 +19°C° 0 mm 2 m/S 738 mmHg 88%
    23:00 +19°C° 0 mm 2 m/S 738 mmHg 89%

    26 September, Mittwoch

    Zeit Temperatur Niederschläge Wind Luftdruck Luftfeuchtigkeit
    00:00 +19°C° 0 mm 2 m/S 738 mmHg 90%
    01:00 +19°C° 0 mm 1 m/S 737 mmHg 91%
    02:00 +19°C° 0 mm 1 m/S 737 mmHg 92%
    03:00 +19°C° 0 mm 1 m/S 737 mmHg 92%
    04:00 +18°C° 0 mm 1 m/S 737 mmHg 92%
    05:00 +18°C° 0 mm 1 m/S 737 mmHg 93%
    06:00 +18°C° 0 mm 2 m/S 738 mmHg 86%
    07:00 +20°C° 0 mm 2 m/S 738 mmHg 80%
    08:00 +21°C° 0 mm 2 m/S 739 mmHg 73%
    09:00 +24°C° 0 mm 2 m/S 738 mmHg 65%
    10:00 +26°C° 0 mm 2 m/S 738 mmHg 57%
    11:00 +27°C° 0 mm 2 m/S 738 mmHg 50%
    12:00 +28°C° 0 mm 2 m/S 737 mmHg 48%
    13:00 +29°C° 0 mm 2 m/S 737 mmHg 47%
    14:00 +29°C° 0 mm 3 m/S 736 mmHg 45%
    15:00 +28°C° 0 mm 2 m/S 736 mmHg 52%
    16:00 +27°C° 0 mm 2 m/S 736 mmHg 59%
    17:00 +26°C° 0 mm 2 m/S 736 mmHg 66%
    18:00 +24°C° 0 mm 2 m/S 737 mmHg 72%
    19:00 +21°C° 0 mm 2 m/S 737 mmHg 78%
    20:00 +20°C° 0 mm 2 m/S 737 mmHg 84%
    21:00 +19°C° 0 mm 2 m/S 737 mmHg 85%
    22:00 +19°C° 0 mm 2 m/S 737 mmHg 86%
    23:00 +18°C° 0 mm 2 m/S 737 mmHg 88%
    Mehr zeigen